This demonstration page uses our WeatherBlox Daily Observations layout. Learn more.

Left ArrowRight Arrow

Hourly Observations for January 3, 2020

Temp ( °F °C ) Dew Point ( °F °C ) Humidity (%) Winds ( mph kmh ) Pressure ( in mb ) Visibility ( mi km ) Precip ( " mm )
12:59 am 00:59 Cloudy 53 11.7 36 2.2 52 52 SW 13 20 29.99 1016 10 16 0.00 0.00
1:59 am 01:59 Cloudy 50 10 40 4.4 68 68 SW 10 17 29.98 1015 10 16 0.00 0.00
2:59 am 02:59 Cloudy with Light Rain 49 9.4 41 5 74 74 SW 12 19 29.97 1015 6 10 0.00 0.00
3:59 am 03:59 Cloudy 47 8.3 43 6.1 86 86 SW 7 11 29.94 1014 10 16 0.00 0.00
4:59 am 04:59 Cloudy 47 8.3 43 6.1 86 86 SW 7 11 29.94 1014 10 16 0.00 0.00
5:59 am 05:59 Cloudy with Mist and Fog 48 8.9 44 6.7 86 86 SW 3 6 29.93 1013 6 10 0.00 0.00
6:59 am 06:59 Cloudy 47 8.3 45 7.2 93 93 SW 5 7 29.93 1014 9 14 0.00 0.00
7:59 am 07:59 Cloudy 47 8.3 45 7.2 93 93 S 6 9 29.92 1013 9 14 0.00 0.00
8:42 am 08:42 Cloudy 49 9.4 45 7.2 86 86 SSW 6 9 29.93 1014 10 16 0.00 0.00
8:59 am 08:59 Cloudy 49 9.4 46 7.8 90 90 SW 7 11 29.94 1014 10 16 0.00 0.00
9:59 am 09:59 Cloudy 51 10.6 48 8.9 89 89 SSW 8 13 29.93 1014 10 16 0.00 0.00
10:59 am 10:59 Cloudy 54 12.2 50 10 87 87 WSW 7 11 29.92 1013 8 13 0.00 0.00
11:59 am 11:59 Cloudy 54 12.2 51 10.6 90 90 WSW 8 13 29.89 1012 9 14 0.00 0.00
12:59 pm 12:59 Cloudy 56 13.3 52 11.1 87 87 W 10 17 29.89 1012 7 11 0.00 0.00
1:59 pm 13:59 Cloudy 57 13.9 54 12.2 90 90 SW 8 13 29.87 1012 7 11 0.00 0.00
2:59 pm 14:59 Cloudy with Mist and Fog 58 14.4 55 12.8 90 90 WSW 7 11 29.87 1012 6 10 0.00 0.00
3:59 pm 15:59 Cloudy with Mist and Fog 57 13.9 54 12.2 90 90 WSW 6 9 29.86 1011 6 10 0.00 0.00
4:59 pm 16:59 Cloudy with Mist and Fog 58 14.4 55 12.8 90 90 SW 7 11 29.87 1012 6 10 0.00 0.00
5:03 pm 17:03 Cloudy with Mist and Fog 58 14.4 56 13.3 93 93 SSW 6 9 29.86 1011 6 10 0.00 0.00
5:59 pm 17:59 Cloudy with Light Rain 58 14.4 56 13.3 93 93 WSW 7 11 29.85 1011 4 6 0.00 0.00
6:19 pm 18:19 Cloudy with Rain 58 14.4 56 13.3 93 93 W 7 11 29.87 1012 2 3 0.00 0.00
6:27 pm 18:27 Cloudy with Light Rain 58 14.4 57 13.9 97 97 WSW 5 7 29.86 1011 2 3 0.00 0.00
6:52 pm 18:52 Cloudy with Light Rain 58 14.4 56 13.3 93 93 WSW 6 9 29.86 1011 5 8 0.00 0.00
6:59 pm 18:59 Cloudy with Light Rain 58 14.4 56 13.3 93 93 WSW 8 13 29.87 1012 4 6 0.11 2.79
7:11 pm 19:11 Cloudy with Light Rain 58 14.4 56 13.3 93 93 SW 9 15 29.87 1012 4 6 0.00 0.00
7:29 pm 19:29 Cloudy with Light Rain 58 14.4 57 13.9 97 97 SW 5 7 29.87 1012 4 6 0.00 0.00
7:49 pm 19:49 Cloudy with Rain 58 14.4 57 13.9 97 97 SSW 6 9 29.89 1012 3 4 0.00 0.00
7:59 pm 19:59 Cloudy with Light Rain 58 14.4 57 13.9 97 97 SW 3 6 29.88 1012 3 5 0.00 0.00
8:20 pm 20:20 Cloudy with Mist and Fog 58 14.4 58 14.4 100 100 SSW 5 7 29.88 1012 5 8 0.00 0.00
8:59 pm 20:59 Cloudy with Light Rain 58 14.4 57 13.9 97 97 SSE 6 9 29.87 1011 5 8 0.06 1.52
9:29 pm 21:29 Cloudy with Heavy Rain 59 15 57 13.9 93 93 SW 6 9 29.89 1012 2 3 0.00 0.00
9:59 pm 21:59 Cloudy with Light Rain 59 15 58 14.4 96 96 Calm 29.88 1012 4 6 0.28 7.11
10:59 pm 22:59 Cloudy with Light Rain 59 15 57 13.9 93 93 SE 8 13 29.83 1010 4 6 0.07 1.78
11:59 pm 23:59 Mostly Cloudy with Mist and Fog 58 14.4 57 13.9 97 97 S 6 9 29.83 1010 4 6 0.01 0.25

Powered by Vaisala Xweather